Time,TemperatureF,DewpointF,PressureIn,WindDirection,WindDirectionDegrees,WindSpeedMPH,WindSpeedGustMPH,Humidity,HourlyPrecipIn,Conditions,Clouds,dailyrainin,SoftwareType,DateUTC
2013-01-01 00:00:00,40.3,39.8,30.27,NW,316,0.0,2.0,98,0.00,,,0.01,Wunderground v.1.15,2013-01-01 08:00:00,
2013-01-01 00:05:00,40.6,40.1,30.28,WSW,253,0.0,2.0,98,0.00,,,0.00,Wunderground v.1.15,2013-01-01 08:05:00,
2013-01-01 00:10:00,40.6,40.1,30.28,SSW,204,0.0,2.0,98,0.00,,,0.00,Wunderground v.1.15,2013-01-01 08:10:00,
2013-01-01 00:19:00,40.7,40.2,30.28,SSE,148,1.0,1.0,98,0.00,,,0.00,Wunderground v.1.15,2013-01-01 08:19:00,
2013-01-01 00:24:00,40.5,40.0,30.28,SSE,148,0.0,2.0,98,0.00,,,0.00,Wunderground v.1.15,2013-01-01 08:24:00,
2013-01-01 00:30:00,40.4,39.9,30.27,SSE,148,0.0,2.0,98,0.00,,,0.00,Wunderground v.1.15,2013-01-01 08:30:00,
2013-01-01 00:35:00,40.4,39.9,30.27,East,89,0.0,2.0,98,0.00,,,0.00,Wunderground v.1.15,2013-01-01 08:35:00,
2013-01-01 00:40:00,40.3,39.8,30.26,East,89,0.0,2.0,98,0.00,,,0.00,Wunderground v.1.15,2013-01-01 08:40:00,
2013-01-01 00:45:00,40.2,39.7,30.26,East,89,0.0,2.0,98,0.00,,,0.00,Wunderground v.1.15,2013-01-01 08:45:00,
2013-01-01 00:54:00,39.6,39.1,30.27,East,88,0.0,2.0,98,0.00,,,0.00,Wunderground v.1.15,2013-01-01 08:54:00,
2013-01-01 01:00:00,39.6,39.1,30.25,East,91,1.0,1.0,98,0.00,,,0.00,Wunderground v.1.15,2013-01-01 09:00:00,
2013-01-01 01:05:00,39.1,38.3,30.26,East,96,1.0,2.0,97,0.00,,,0.00,Wunderground v.1.15,2013-01-01 09:05:00,
2013-01-01 01:10:00,39.6,39.1,30.26,East,99,0.0,2.0,98,0.00,,,0.00,Wunderground v.1.15,2013-01-01 09:10:00,
2013-01-01 01:15:00,39.6,39.1,30.25,East,98,0.0,2.0,98,0.00,,,0.00,Wunderground v.1.15,2013-01-01 09:15:00,
2013-01-01 01:20:00,39.5,39.0,30.25,East,98,0.0,2.0,98,0.00,,,0.00,Wunderground v.1.15,2013-01-01 09:20:00,
2013-01-01 01:27:00,39.4,39.0,30.26,West,262,0.0,0.0,98,0.00,,,0.00,weatherlink.com 1.10,2013-01-01 09:27:00,
2013-01-01 01:34:00,39.4,38.9,30.26,SSW,206,0.0,2.0,98,0.00,,,0.00,Wunderground v.1.15,2013-01-01 09:34:00,
2013-01-01 01:40:00,38.7,37.9,30.26,ENE,61,0.0,2.0,97,0.00,,,0.00,Wunderground v.1.15,2013-01-01 09:40:00,
2013-01-01 01:45:00,38.3,37.8,30.26,ENE,73,0.0,2.0,98,0.00,,,0.00,Wunderground v.1.15,2013-01-01 09:45:00,
2013-01-01 01:50:00,37.9,37.4,30.26,ENE,68,0.0,2.0,98,0.00,,,0.00,Wunderground v.1.15,2013-01-01 09:50:00,
2013-01-01 01:55:00,37.3,36.5,30.26,NE,56,0.0,2.0,97,0.00,,,0.00,Wunderground v.1.15,2013-01-01 09:55:00,
2013-01-01 02:04:00,37.1,36.6,30.26,NE,53,0.0,2.0,98,0.00,,,0.00,Wunderground v.1.15,2013-01-01 10:04:00,
2013-01-01 02:09:00,37.1,36.6,30.26,NE,54,0.0,2.0,98,0.00,,,0.00,Wunderground v.1.15,2013-01-01 10:09:00,
2013-01-01 02:15:00,37.1,36.6,30.26,NE,54,0.0,2.0,98,0.00,,,0.00,Wunderground v.1.15,2013-01-01 10:15:00,
2013-01-01 02:20:00,36.9,36.4,30.26,NE,53,0.0,2.0,98,0.00,,,0.00,Wunderground v.1.15,2013-01-01 10:20:00,
2013-01-01 02:25:00,36.8,36.3,30.26,NE,52,0.0,2.0,98,0.00,,,0.00,Wunderground v.1.15,2013-01-01 10:25:00,
2013-01-01 02:30:00,36.9,36.4,30.26,NE,53,0.0,2.0,98,0.00,,,0.00,Wunderground v.1.15,2013-01-01 10:30:00,
2013-01-01 02:35:00,37.1,36.6,30.26,NE,52,0.0,2.0,98,0.00,,,0.00,Wunderground v.1.15,2013-01-01 10:35:00,
2013-01-01 02:41:00,37.1,37.0,30.27,NE,52,0.0,0.0,98,0.00,,,0.00,weatherlink.com 1.10,2013-01-01 10:41:00,
2013-01-01 02:50:00,37.4,37.1,30.27,NE,53,0.0,2.0,99,0.00,,,0.00,Wunderground v.1.15,2013-01-01 10:50:00,
2013-01-01 02:55:00,37.5,37.2,30.27,NE,41,0.0,2.0,99,0.00,,,0.00,Wunderground v.1.15,2013-01-01 10:55:00,
2013-01-01 03:05:00,38.7,38.4,30.28,WNW,294,1.0,2.0,99,0.00,,,0.00,Wunderground v.1.15,2013-01-01 11:05:00,
2013-01-01 03:10:00,39.1,38.8,30.27,WNW,294,1.0,1.0,99,0.00,,,0.00,Wunderground v.1.15,2013-01-01 11:10:00,
2013-01-01 03:20:00,40.0,39.7,30.27,ESE,113,1.0,1.0,99,0.00,,,0.00,Wunderground v.1.15,2013-01-01 11:20:00,
2013-01-01 03:25:00,40.0,39.7,30.27,ESE,108,1.0,2.0,99,0.00,,,0.00,Wunderground v.1.15,2013-01-01 11:25:00,
2013-01-01 03:35:00,39.7,39.4,30.28,ENE,63,1.0,2.0,99,0.00,,,0.00,Wunderground v.1.15,2013-01-01 11:35:00,
2013-01-01 03:40:00,39.8,39.5,30.28,ENE,60,1.0,3.0,99,0.00,,,0.00,Wunderground v.1.15,2013-01-01 11:40:00,
2013-01-01 03:45:00,39.9,39.6,30.27,ENE,62,1.0,3.0,99,0.00,,,0.00,Wunderground v.1.15,2013-01-01 11:45:00,
2013-01-01 03:55:00,40.3,40.0,30.28,SSE,160,0.0,2.0,99,0.00,,,0.00,Wunderground v.1.15,2013-01-01 11:55:00,
2013-01-01 04:00:00,40.4,40.1,30.28,SSE,160,0.0,2.0,99,0.00,,,0.00,Wunderground v.1.15,2013-01-01 12:00:00,
2013-01-01 04:10:00,40.1,39.8,30.28,East,87,0.0,2.0,99,0.00,,,0.00,Wunderground v.1.15,2013-01-01 12:10:00,
2013-01-01 04:15:00,39.9,39.4,30.27,East,87,0.0,2.0,98,0.00,,,0.00,Wunderground v.1.15,2013-01-01 12:15:00,
2013-01-01 04:20:00,39.7,39.2,30.28,NE,45,0.0,2.0,98,0.00,,,0.00,Wunderground v.1.15,2013-01-01 12:20:00,
2013-01-01 04:27:00,39.5,39.0,30.27,NE,46,0.0,0.0,99,0.00,,,0.00,weatherlink.com 1.10,2013-01-01 12:27:00,
2013-01-01 04:35:00,39.8,39.5,30.27,SSE,159,1.0,2.0,99,0.00,,,0.00,Wunderground v.1.15,2013-01-01 12:35:00,
2013-01-01 04:41:00,39.7,40.0,30.27,NE,50,0.0,2.0,99,0.00,,,0.00,weatherlink.com 1.10,2013-01-01 12:41:00,
2013-01-01 04:50:00,39.7,39.4,30.27,East,94,0.0,2.0,99,0.00,,,0.00,Wunderground v.1.15,2013-01-01 12:50:00,
2013-01-01 04:55:00,39.9,39.6,30.27,SE,124,0.0,2.0,99,0.00,,,0.00,Wunderground v.1.15,2013-01-01 12:55:00,
2013-01-01 05:00:00,40.0,39.7,30.27,SE,127,0.0,2.0,99,0.00,,,0.00,Wunderground v.1.15,2013-01-01 13:00:00,
2013-01-01 05:09:00,39.8,39.5,30.27,SE,136,0.0,2.0,99,0.00,,,0.00,Wunderground v.1.15,2013-01-01 13:09:00,
2013-01-01 05:15:00,39.7,39.4,30.27,East,101,0.0,2.0,99,0.00,,,0.00,Wunderground v.1.15,2013-01-01 13:15:00,
2013-01-01 05:20:00,39.7,39.4,30.27,East,81,0.0,2.0,99,0.00,,,0.00,Wunderground v.1.15,2013-01-01 13:20:00,
2013-01-01 05:25:00,39.8,39.5,30.27,East,100,0.0,2.0,99,0.00,,,0.00,Wunderground v.1.15,2013-01-01 13:25:00,
2013-01-01 05:30:00,39.9,39.6,30.27,East,94,0.0,2.0,99,0.00,,,0.00,Wunderground v.1.15,2013-01-01 13:30:00,
2013-01-01 05:39:00,39.8,39.5,30.28,East,87,0.0,2.0,99,0.00,,,0.00,Wunderground v.1.15,2013-01-01 13:39:00,
2013-01-01 05:44:00,40.0,39.7,30.28,East,92,0.0,2.0,99,0.00,,,0.00,Wunderground v.1.15,2013-01-01 13:44:00,
2013-01-01 05:50:00,40.0,39.7,30.28,East,98,0.0,2.0,99,0.00,,,0.00,Wunderground v.1.15,2013-01-01 13:50:00,
2013-01-01 05:55:00,40.2,39.9,30.28,East,98,0.0,2.0,99,0.00,,,0.00,Wunderground v.1.15,2013-01-01 13:55:00,
2013-01-01 06:00:00,40.3,40.0,30.28,East,99,0.0,2.0,99,0.00,,,0.00,Wunderground v.1.15,2013-01-01 14:00:00,
2013-01-01 06:05:00,40.4,40.1,30.28,East,99,0.0,2.0,99,0.00,,,0.00,Wunderground v.1.15,2013-01-01 14:05:00,
2013-01-01 06:11:00,40.0,40.0,30.28,East,99,0.0,0.0,98,0.00,,,0.00,weatherlink.com 1.10,2013-01-01 14:11:00,
2013-01-01 06:19:00,40.0,39.7,30.29,East,99,0.0,2.0,99,0.00,,,0.00,Wunderground v.1.15,2013-01-01 14:19:00,
2013-01-01 06:25:00,39.9,39.6,30.29,East,99,0.0,2.0,99,0.00,,,0.00,Wunderground v.1.15,2013-01-01 14:25:00,
2013-01-01 06:30:00,39.6,39.1,30.28,ENE,60,0.0,2.0,98,0.00,,,0.00,Wunderground v.1.15,2013-01-01 14:30:00,
2013-01-01 06:35:00,39.3,38.8,30.29,ENE,60,0.0,2.0,98,0.00,,,0.00,Wunderground v.1.15,2013-01-01 14:35:00,
2013-01-01 06:40:00,39.0,38.5,30.29,ENE,64,0.0,2.0,98,0.00,,,0.00,Wunderground v.1.15,2013-01-01 14:40:00,
2013-01-01 06:50:00,38.8,38.0,30.29,East,81,2.0,2.0,97,0.00,,,0.00,Wunderground v.1.15,2013-01-01 14:50:00,
2013-01-01 06:57:00,38.4,38.0,30.29,East,83,0.0,1.0,97,0.00,,,0.00,weatherlink.com 1.10,2013-01-01 14:57:00,
2013-01-01 07:05:00,38.1,37.3,30.29,ENE,67,0.0,3.0,97,0.00,,,0.00,Wunderground v.1.15,2013-01-01 15:05:00,
2013-01-01 07:10:00,38.3,37.5,30.29,ENE,60,2.0,6.0,97,0.00,,,0.00,Wunderground v.1.15,2013-01-01 15:10:00,
2013-01-01 07:15:00,38.4,37.4,30.29,ENE,60,5.0,6.0,96,0.00,,,0.00,Wunderground v.1.15,2013-01-01 15:15:00,
2013-01-01 07:24:00,38.3,37.0,30.29,ENE,78,4.0,5.0,95,0.00,,,0.00,Wunderground v.1.15,2013-01-01 15:24:00,
2013-01-01 07:30:00,38.2,36.6,30.29,NE,54,3.0,4.0,94,0.00,,,0.00,Wunderground v.1.15,2013-01-01 15:30:00,
2013-01-01 07:35:00,37.7,36.1,30.29,ENE,65,2.0,4.0,94,0.00,,,0.00,Wunderground v.1.15,2013-01-01 15:35:00,
2013-01-01 07:40:00,37.1,35.5,30.29,NE,56,3.0,3.0,94,0.00,,,0.00,Wunderground v.1.15,2013-01-01 15:40:00,
2013-01-01 07:45:00,36.7,35.1,30.29,ENE,59,3.0,4.0,94,0.00,,,0.00,Wunderground v.1.15,2013-01-01 15:45:00,
2013-01-01 07:54:00,37.8,36.2,30.30,ENE,60,4.0,4.0,94,0.00,,,0.00,Wunderground v.1.15,2013-01-01 15:54:00,
2013-01-01 08:04:00,38.2,36.4,30.30,ENE,64,1.0,3.0,93,0.00,,,0.00,Wunderground v.1.15,2013-01-01 16:04:00,
2013-01-01 08:10:00,38.2,36.4,30.30,SW,236,0.0,2.0,93,0.00,,,0.00,Wunderground v.1.15,2013-01-01 16:10:00,
2013-01-01 08:15:00,38.1,36.3,30.30,SE,144,0.0,2.0,93,0.00,,,0.00,Wunderground v.1.15,2013-01-01 16:15:00,
2013-01-01 08:20:00,38.3,36.7,30.30,ESE,111,1.0,1.0,94,0.00,,,0.00,Wunderground v.1.15,2013-01-01 16:20:00,
2013-01-01 08:25:00,38.6,37.3,30.30,ENE,77,1.0,2.0,95,0.00,,,0.00,Wunderground v.1.15,2013-01-01 16:25:00,
2013-01-01 08:34:00,38.8,37.5,30.30,NE,56,0.0,2.0,95,0.00,,,0.00,Wunderground v.1.15,2013-01-01 16:34:00,
2013-01-01 08:39:00,38.9,37.6,30.30,ENE,60,0.0,2.0,95,0.00,,,0.00,Wunderground v.1.15,2013-01-01 16:39:00,
2013-01-01 08:45:00,39.3,38.0,30.30,East,90,0.0,2.0,95,0.00,,,0.00,Wunderground v.1.15,2013-01-01 16:45:00,
2013-01-01 08:50:00,39.7,38.4,30.30,ESE,122,0.0,2.0,95,0.00,,,0.00,Wunderground v.1.15,2013-01-01 16:50:00,
2013-01-01 08:55:00,40.2,38.9,30.30,SSE,156,1.0,3.0,95,0.00,,,0.00,Wunderground v.1.15,2013-01-01 16:55:00,
2013-01-01 09:00:00,40.5,38.9,30.30,SSE,156,2.0,4.0,94,0.00,,,0.00,Wunderground v.1.15,2013-01-01 17:00:00,
2013-01-01 09:10:00,40.8,39.2,30.30,SE,145,3.0,3.0,94,0.00,,,0.00,Wunderground v.1.15,2013-01-01 17:10:00,
2013-01-01 09:19:00,41.2,39.6,30.31,SE,134,1.0,1.0,94,0.00,,,0.00,Wunderground v.1.15,2013-01-01 17:19:00,
2013-01-01 09:25:00,41.5,39.9,30.31,SSE,160,1.0,7.0,94,0.00,,,0.00,Wunderground v.1.15,2013-01-01 17:25:00,
2013-01-01 09:30:00,41.7,39.8,30.31,SE,134,0.0,7.0,93,0.00,,,0.00,Wunderground v.1.15,2013-01-01 17:30:00,
2013-01-01 09:35:00,42.1,40.2,30.31,SSE,148,1.0,7.0,93,0.00,,,0.00,Wunderground v.1.15,2013-01-01 17:35:00,
2013-01-01 09:42:00,42.3,40.0,30.31,SE,131,3.0,4.0,91,0.00,,,0.00,weatherlink.com 1.10,2013-01-01 17:42:00,
2013-01-01 09:49:00,42.9,40.2,30.31,SE,145,2.0,2.0,90,0.00,,,0.00,Wunderground v.1.15,2013-01-01 17:49:00,
2013-01-01 09:55:00,43.6,39.7,30.31,ESE,115,2.0,7.0,86,0.00,,,0.00,Wunderground v.1.15,2013-01-01 17:55:00,
2013-01-01 10:00:00,44.1,39.6,30.32,SW,214,2.0,2.0,84,0.00,,,0.00,Wunderground v.1.15,2013-01-01 18:00:00,
2013-01-01 10:05:00,44.7,39.9,30.32,SSW,204,1.0,7.0,83,0.00,,,0.00,Wunderground v.1.15,2013-01-01 18:05:00,
2013-01-01 10:12:00,45.5,40.0,30.32,East,87,1.0,4.0,81,0.00,,,0.00,weatherlink.com 1.10,2013-01-01 18:12:00,
2013-01-01 10:19:00,46.5,39.3,30.32,East,93,4.0,4.0,76,0.00,,,0.00,Wunderground v.1.15,2013-01-01 18:19:00,
2013-01-01 10:25:00,47.0,40.2,30.31,ENE,76,6.0,6.0,77,0.00,,,0.00,Wunderground v.1.15,2013-01-01 18:25:00,
2013-01-01 10:30:00,47.3,40.5,30.31,WSW,254,4.0,4.0,77,0.00,,,0.00,Wunderground v.1.15,2013-01-01 18:30:00,
2013-01-01 10:35:00,47.9,40.0,30.31,NNE,25,2.0,7.0,74,0.00,,,0.00,Wunderground v.1.15,2013-01-01 18:35:00,
2013-01-01 10:42:00,48.2,40.0,30.31,East,86,0.0,7.0,74,0.00,,,0.00,weatherlink.com 1.10,2013-01-01 18:42:00,
2013-01-01 10:50:00,49.0,40.7,30.30,SE,131,1.0,1.0,73,0.00,,,0.00,Wunderground v.1.15,2013-01-01 18:50:00,
2013-01-01 10:58:00,48.8,39.0,30.31,NE,55,9.0,16.0,69,0.00,,,0.00,weatherlink.com 1.10,2013-01-01 18:58:00,
2013-01-01 11:05:00,48.9,40.3,30.30,NE,41,6.0,10.0,72,0.00,,,0.00,Wunderground v.1.15,2013-01-01 19:05:00,
2013-01-01 11:10:00,49.1,40.1,30.30,ENE,77,3.0,3.0,71,0.00,,,0.00,Wunderground v.1.15,2013-01-01 19:10:00,
2013-01-01 11:20:00,49.5,40.5,30.29,ESE,122,4.0,4.0,71,0.00,,,0.00,Wunderground v.1.15,2013-01-01 19:20:00,
2013-01-01 11:25:00,49.6,39.8,30.30,ENE,58,4.0,8.0,69,0.00,,,0.00,Wunderground v.1.15,2013-01-01 19:25:00,
2013-01-01 11:35:00,49.8,40.0,30.29,NE,47,2.0,5.0,69,0.00,,,0.00,Wunderground v.1.15,2013-01-01 19:35:00,
2013-01-01 11:40:00,50.2,39.7,30.30,NE,50,4.0,11.0,67,0.00,,,0.00,Wunderground v.1.15,2013-01-01 19:40:00,
2013-01-01 11:49:00,50.4,40.2,30.29,East,79,5.0,5.0,68,0.00,,,0.00,Wunderground v.1.15,2013-01-01 19:49:00,
2013-01-01 11:55:00,50.6,40.4,30.29,ENE,68,5.0,7.0,68,0.00,,,0.00,Wunderground v.1.15,2013-01-01 19:55:00,
2013-01-01 12:00:00,50.7,39.7,30.29,NE,55,5.0,7.0,66,0.00,,,0.00,Wunderground v.1.15,2013-01-01 20:00:00,
2013-01-01 12:10:00,51.0,40.0,30.28,NE,54,6.0,9.0,66,0.00,,,0.00,Wunderground v.1.15,2013-01-01 20:10:00,
2013-01-01 12:19:00,51.4,40.8,30.28,ENE,72,6.0,6.0,67,0.00,,,0.00,Wunderground v.1.15,2013-01-01 20:19:00,
2013-01-01 12:25:00,51.6,40.2,30.28,NE,54,5.0,12.0,65,0.00,,,0.00,Wunderground v.1.15,2013-01-01 20:25:00,
2013-01-01 12:30:00,51.7,40.3,30.27,ESE,104,4.0,4.0,65,0.00,,,0.00,Wunderground v.1.15,2013-01-01 20:30:00,
2013-01-01 12:35:00,52.2,40.8,30.27,ENE,70,3.0,7.0,65,0.00,,,0.00,Wunderground v.1.15,2013-01-01 20:35:00,
2013-01-01 12:43:00,52.4,40.0,30.27,NE,55,3.0,14.0,62,0.00,,,0.00,weatherlink.com 1.10,2013-01-01 20:43:00,
2013-01-01 12:49:00,52.7,40.0,30.26,East,96,6.0,6.0,62,0.00,,,0.00,Wunderground v.1.15,2013-01-01 20:49:00,
2013-01-01 12:55:00,52.6,39.1,30.26,ENE,76,4.0,7.0,60,0.00,,,0.00,Wunderground v.1.15,2013-01-01 20:55:00,
2013-01-01 13:00:00,52.7,39.2,30.26,NE,49,3.0,7.0,60,0.00,,,0.00,Wunderground v.1.15,2013-01-01 21:00:00,
2013-01-01 13:05:00,53.0,39.5,30.26,NE,54,3.0,7.0,60,0.00,,,0.00,Wunderground v.1.15,2013-01-01 21:05:00,
2013-01-01 13:13:00,53.5,39.0,30.26,East,101,4.0,6.0,59,0.00,,,0.00,weatherlink.com 1.10,2013-01-01 21:13:00,
2013-01-01 13:19:00,53.7,38.4,30.26,NNE,19,4.0,4.0,56,0.00,,,0.00,Wunderground v.1.15,2013-01-01 21:19:00,
2013-01-01 13:24:00,53.4,38.1,30.25,NE,45,5.0,6.0,56,0.00,,,0.00,Wunderground v.1.15,2013-01-01 21:24:00,
2013-01-01 13:30:00,53.9,40.3,30.25,ENE,68,5.0,5.0,60,0.00,,,0.00,Wunderground v.1.15,2013-01-01 21:30:00,
2013-01-01 13:35:00,54.0,38.2,30.25,NE,56,6.0,6.0,55,0.00,,,0.00,Wunderground v.1.15,2013-01-01 21:35:00,
2013-01-01 13:40:00,54.0,37.7,30.25,NE,51,6.0,9.0,54,0.00,,,0.00,Wunderground v.1.15,2013-01-01 21:40:00,
2013-01-01 13:50:00,54.0,39.1,30.25,ESE,117,3.0,3.0,57,0.00,,,0.00,Wunderground v.1.15,2013-01-01 21:50:00,
2013-01-01 13:58:00,54.8,38.0,30.24,ENE,75,3.0,7.0,53,0.00,,,0.00,weatherlink.com 1.10,2013-01-01 21:58:00,
2013-01-01 14:05:00,55.0,37.2,30.25,East,93,4.0,8.0,51,0.00,,,0.00,Wunderground v.1.15,2013-01-01 22:05:00,
2013-01-01 14:10:00,55.1,37.3,30.25,ENE,60,4.0,7.0,51,0.00,,,0.00,Wunderground v.1.15,2013-01-01 22:10:00,
2013-01-01 14:20:00,55.4,34.9,30.24,NE,43,6.0,7.0,46,0.00,,,0.00,Wunderground v.1.15,2013-01-01 22:20:00,
2013-01-01 14:25:00,55.7,35.8,30.24,NE,43,6.0,7.0,47,0.00,,,0.00,Wunderground v.1.15,2013-01-01 22:25:00,
2013-01-01 14:35:00,56.0,35.5,30.24,ENE,75,5.0,7.0,46,0.00,,,0.00,Wunderground v.1.15,2013-01-01 22:35:00,
2013-01-01 14:43:00,56.0,36.0,30.24,ENE,64,5.0,10.0,47,0.00,,,0.00,weatherlink.com 1.10,2013-01-01 22:43:00,
2013-01-01 14:50:00,56.2,39.3,30.24,ESE,117,3.0,3.0,53,0.00,,,0.00,Wunderground v.1.15,2013-01-01 22:50:00,
2013-01-01 14:55:00,56.5,40.0,30.24,East,80,1.0,7.0,54,0.00,,,0.00,Wunderground v.1.15,2013-01-01 22:55:00,
2013-01-01 15:00:00,56.4,40.0,30.24,NE,55,2.0,7.0,54,0.00,,,0.00,Wunderground v.1.15,2013-01-01 23:00:00,
2013-01-01 15:09:00,55.8,38.4,30.24,NE,45,1.0,1.0,52,0.00,,,0.00,Wunderground v.1.15,2013-01-01 23:09:00,
2013-01-01 15:14:00,55.7,38.8,30.24,East,84,1.0,7.0,53,0.00,,,0.00,Wunderground v.1.15,2013-01-01 23:14:00,
2013-01-01 15:20:00,55.8,39.4,30.24,NE,37,2.0,2.0,54,0.00,,,0.00,Wunderground v.1.15,2013-01-01 23:20:00,
2013-01-01 15:25:00,56.0,39.1,30.24,East,92,1.0,7.0,53,0.00,,,0.00,Wunderground v.1.15,2013-01-01 23:25:00,
2013-01-01 15:30:00,56.3,41.3,30.24,East,94,1.0,7.0,57,0.00,,,0.00,Wunderground v.1.15,2013-01-01 23:30:00,
2013-01-01 15:40:00,56.7,39.7,30.24,East,97,1.0,7.0,53,0.00,,,0.00,Wunderground v.1.15,2013-01-01 23:40:00,
2013-01-01 15:49:00,56.6,39.2,30.23,East,90,1.0,7.0,52,0.00,,,0.00,Wunderground v.1.15,2013-01-01 23:49:00,
2013-01-01 15:55:00,55.9,39.5,30.23,East,91,1.0,7.0,54,0.00,,,0.00,Wunderground v.1.15,2013-01-01 23:55:00,
2013-01-01 16:00:00,55.4,39.5,30.23,SE,127,2.0,2.0,55,0.00,,,0.00,Wunderground v.1.15,2013-01-02 00:00:00,
2013-01-01 16:05:00,55.3,39.4,30.23,East,93,1.0,7.0,55,0.00,,,0.00,Wunderground v.1.15,2013-01-02 00:05:00,
2013-01-01 16:13:00,55.0,39.0,30.23,ENE,77,0.0,3.0,55,0.00,,,0.00,weatherlink.com 1.10,2013-01-02 00:13:00,
2013-01-01 16:19:00,54.6,39.2,30.22,ESE,120,1.0,1.0,56,0.00,,,0.00,Wunderground v.1.15,2013-01-02 00:19:00,
2013-01-01 16:24:00,54.2,38.8,30.22,East,96,0.0,7.0,56,0.00,,,0.00,Wunderground v.1.15,2013-01-02 00:24:00,
2013-01-01 16:30:00,53.5,39.1,30.22,East,96,0.0,7.0,58,0.00,,,0.00,Wunderground v.1.15,2013-01-02 00:30:00,
2013-01-01 16:35:00,52.7,38.3,30.22,East,87,0.0,7.0,58,0.00,,,0.00,Wunderground v.1.15,2013-01-02 00:35:00,
2013-01-01 16:40:00,52.0,38.1,30.22,East,100,0.0,7.0,59,0.00,,,0.00,Wunderground v.1.15,2013-01-02 00:40:00,
2013-01-01 16:50:00,50.6,38.1,30.22,East,93,0.0,7.0,62,0.00,,,0.00,Wunderground v.1.15,2013-01-02 00:50:00,
2013-01-01 16:55:00,49.7,38.0,30.22,East,92,0.0,7.0,64,0.00,,,0.00,Wunderground v.1.15,2013-01-02 00:55:00,
2013-01-01 17:05:00,47.6,36.8,30.22,NE,56,0.0,7.0,66,0.00,,,0.00,Wunderground v.1.15,2013-01-02 01:05:00,
2013-01-01 17:10:00,46.9,36.9,30.22,NE,54,0.0,7.0,68,0.00,,,0.00,Wunderground v.1.15,2013-01-02 01:10:00,
2013-01-01 17:15:00,46.5,36.9,30.22,ENE,66,1.0,7.0,69,0.00,,,0.00,Wunderground v.1.15,2013-01-02 01:15:00,
2013-01-01 17:20:00,46.0,36.8,30.22,ENE,63,1.0,1.0,70,0.00,,,0.00,Wunderground v.1.15,2013-01-02 01:20:00,
2013-01-01 17:29:00,46.1,37.0,30.22,NE,52,0.0,1.0,71,0.00,,,0.00,weatherlink.com 1.10,2013-01-02 01:29:00,
2013-01-01 17:34:00,45.4,36.5,30.22,ENE,62,0.0,7.0,71,0.00,,,0.00,Wunderground v.1.15,2013-01-02 01:34:00,
2013-01-01 17:40:00,45.3,36.4,30.22,ENE,65,0.0,7.0,71,0.00,,,0.00,Wunderground v.1.15,2013-01-02 01:40:00,
2013-01-01 17:45:00,45.3,36.8,30.23,ENE,65,0.0,7.0,72,0.00,,,0.00,Wunderground v.1.15,2013-01-02 01:45:00,
2013-01-01 17:50:00,45.1,36.6,30.23,ENE,65,0.0,7.0,72,0.00,,,0.00,Wunderground v.1.15,2013-01-02 01:50:00,
2013-01-01 17:55:00,44.5,36.4,30.23,ENE,63,2.0,7.0,73,0.00,,,0.00,Wunderground v.1.15,2013-01-02 01:55:00,
2013-01-01 18:05:00,44.3,36.2,30.23,NE,41,2.0,7.0,73,0.00,,,0.00,Wunderground v.1.15,2013-01-02 02:05:00,
2013-01-01 18:14:00,43.3,36.0,30.24,NE,53,0.0,0.0,74,0.00,,,0.00,weatherlink.com 1.10,2013-01-02 02:14:00,
2013-01-01 18:20:00,43.1,36.4,30.24,NE,53,0.0,7.0,77,0.00,,,0.00,Wunderground v.1.15,2013-01-02 02:20:00,
2013-01-01 18:25:00,42.5,36.4,30.24,NNW,340,0.0,7.0,79,0.00,,,0.00,Wunderground v.1.15,2013-01-02 02:25:00,
2013-01-01 18:30:00,42.4,37.3,30.24,NW,315,0.0,7.0,82,0.00,,,0.00,Wunderground v.1.15,2013-01-02 02:30:00,
2013-01-01 18:35:00,42.0,36.6,30.24,NE,47,0.0,7.0,81,0.00,,,0.00,Wunderground v.1.15,2013-01-02 02:35:00,
2013-01-01 18:40:00,41.1,36.0,30.25,NE,53,0.0,7.0,82,0.00,,,0.00,Wunderground v.1.15,2013-01-02 02:40:00,
2013-01-01 18:50:00,40.3,35.8,30.25,NE,47,0.0,7.0,84,0.00,,,0.00,Wunderground v.1.15,2013-01-02 02:50:00,
2013-01-01 18:55:00,39.7,35.3,30.25,NE,46,0.0,7.0,84,0.00,,,0.00,Wunderground v.1.15,2013-01-02 02:55:00,
2013-01-01 19:00:00,39.1,35.0,30.26,NNE,30,0.0,0.0,86,0.00,,,0.00,weatherlink.com 1.10,2013-01-02 03:00:00,
2013-01-01 19:05:00,38.5,35.0,30.26,NE,43,0.0,7.0,87,0.00,,,0.00,Wunderground v.1.15,2013-01-02 03:05:00,
2013-01-01 19:10:00,38.1,34.9,30.26,NE,51,0.0,7.0,88,0.00,,,0.00,Wunderground v.1.15,2013-01-02 03:10:00,
2013-01-01 19:15:00,38.1,35.1,30.26,NE,46,0.0,7.0,89,0.00,,,0.00,Wunderground v.1.15,2013-01-02 03:15:00,
2013-01-01 19:25:00,37.5,34.8,30.27,NE,41,0.0,7.0,90,0.00,,,0.00,Wunderground v.1.15,2013-01-02 03:25:00,
2013-01-01 19:30:00,37.2,35.0,30.27,NE,43,0.0,0.0,91,0.00,,,0.00,weatherlink.com 1.10,2013-01-02 03:30:00,
2013-01-01 19:35:00,37.4,35.0,30.26,NE,47,0.0,7.0,91,0.00,,,0.00,Wunderground v.1.15,2013-01-02 03:35:00,
2013-01-01 19:40:00,36.8,34.4,30.27,NE,49,0.0,7.0,91,0.00,,,0.00,Wunderground v.1.15,2013-01-02 03:40:00,
2013-01-01 19:49:00,36.2,34.1,30.27,NE,48,0.0,7.0,92,0.00,,,0.00,Wunderground v.1.15,2013-01-02 03:49:00,
2013-01-01 19:54:00,36.7,34.9,30.27,NE,49,0.0,7.0,93,0.00,,,0.00,Wunderground v.1.15,2013-01-02 03:54:00,
2013-01-01 19:59:00,36.9,35.0,30.27,NE,53,0.0,0.0,92,0.00,,,0.00,weatherlink.com 1.10,2013-01-02 03:59:00,
2013-01-01 20:05:00,37.3,35.5,30.26,NE,52,0.0,7.0,93,0.00,,,0.00,Wunderground v.1.15,2013-01-02 04:05:00,
2013-01-01 20:10:00,36.7,34.3,30.26,ENE,61,0.0,7.0,91,0.00,,,0.00,Wunderground v.1.15,2013-01-02 04:10:00,
2013-01-01 20:15:00,36.3,34.0,30.27,ENE,60,0.0,0.0,91,0.00,,,0.00,weatherlink.com 1.10,2013-01-02 04:15:00,
2013-01-01 20:20:00,35.6,33.2,30.26,NE,51,0.0,7.0,91,0.00,,,0.00,Wunderground v.1.15,2013-01-02 04:20:00,
2013-01-01 20:29:00,35.0,33.0,30.27,NE,51,0.0,0.0,93,0.00,,,0.00,weatherlink.com 1.10,2013-01-02 04:29:00,
2013-01-01 20:35:00,35.1,33.3,30.27,NE,51,0.0,7.0,93,0.00,,,0.00,Wunderground v.1.15,2013-01-02 04:35:00,
2013-01-01 20:40:00,34.8,33.0,30.27,NE,51,0.0,7.0,93,0.00,,,0.00,Wunderground v.1.15,2013-01-02 04:40:00,
2013-01-01 20:45:00,34.6,33.0,30.27,NE,51,0.0,0.0,93,0.00,,,0.00,weatherlink.com 1.10,2013-01-02 04:45:00,
2013-01-01 20:54:00,35.3,33.7,30.27,NE,51,0.0,7.0,94,0.00,,,0.00,Wunderground v.1.15,2013-01-02 04:54:00,
2013-01-01 20:59:00,35.4,34.0,30.27,NE,51,0.0,0.0,93,0.00,,,0.00,weatherlink.com 1.10,2013-01-02 04:59:00,
2013-01-01 21:05:00,35.4,33.8,30.27,NE,51,0.0,7.0,94,0.00,,,0.00,Wunderground v.1.15,2013-01-02 05:05:00,
2013-01-01 21:10:00,35.4,33.6,30.27,NE,51,0.0,7.0,93,0.00,,,0.00,Wunderground v.1.15,2013-01-02 05:10:00,
2013-01-01 21:15:00,34.7,33.0,30.27,NE,51,0.0,0.0,92,0.00,,,0.00,weatherlink.com 1.10,2013-01-02 05:15:00,
2013-01-01 21:20:00,34.4,32.6,30.27,NE,51,0.0,7.0,93,0.00,,,0.00,Wunderground v.1.15,2013-01-02 05:20:00,
2013-01-01 21:29:00,33.7,32.0,30.27,NE,52,0.0,0.0,93,0.00,,,0.00,weatherlink.com 1.10,2013-01-02 05:29:00,
2013-01-01 21:39:00,34.3,32.8,30.28,NE,56,0.0,7.0,94,0.00,,,0.00,Wunderground v.1.15,2013-01-02 05:39:00,
2013-01-01 21:44:00,34.2,33.0,30.27,NE,56,0.0,0.0,94,0.00,,,0.00,weatherlink.com 1.10,2013-01-02 05:44:00,
2013-01-01 21:50:00,33.7,31.9,30.28,SE,139,0.0,7.0,93,0.00,,,0.00,Wunderground v.1.15,2013-01-02 05:50:00,
2013-01-01 21:55:00,33.8,32.3,30.28,ESE,121,0.0,7.0,94,0.00,,,0.00,Wunderground v.1.15,2013-01-02 05:55:00,
2013-01-01 22:00:00,33.7,32.0,30.28,WSW,252,0.0,0.0,94,0.00,,,0.00,weatherlink.com 1.10,2013-01-02 06:00:00,
2013-01-01 22:09:00,33.7,32.2,30.28,WSW,253,0.0,7.0,94,0.00,,,0.00,Wunderground v.1.15,2013-01-02 06:09:00,
2013-01-01 22:15:00,33.8,33.0,30.28,WSW,253,0.0,0.0,95,0.00,,,0.00,weatherlink.com 1.10,2013-01-02 06:15:00,
2013-01-01 22:20:00,34.3,33.3,30.28,SSE,160,0.0,7.0,96,0.00,,,0.00,Wunderground v.1.15,2013-01-02 06:20:00,
2013-01-01 22:25:00,35.2,34.2,30.28,SE,134,1.0,7.0,96,0.00,,,0.00,Wunderground v.1.15,2013-01-02 06:25:00,
2013-01-01 22:30:00,35.1,34.0,30.28,ESE,114,0.0,3.0,95,0.00,,,0.00,weatherlink.com 1.10,2013-01-02 06:30:00,
2013-01-01 22:39:00,34.7,33.2,30.28,East,94,0.0,7.0,94,0.00,,,0.00,Wunderground v.1.15,2013-01-02 06:39:00,
2013-01-01 22:44:00,34.9,34.0,30.28,East,90,0.0,0.0,95,0.00,,,0.00,weatherlink.com 1.10,2013-01-02 06:44:00,
2013-01-01 22:50:00,35.1,33.5,30.28,SE,134,0.0,7.0,94,0.00,,,0.00,Wunderground v.1.15,2013-01-02 06:50:00,
2013-01-01 22:55:00,35.1,33.5,30.28,SE,134,0.0,7.0,94,0.00,,,0.00,Wunderground v.1.15,2013-01-02 06:55:00,
2013-01-01 23:00:00,35.0,34.0,30.28,SE,138,2.0,2.0,94,0.00,,,0.00,weatherlink.com 1.10,2013-01-02 07:00:00,
2013-01-01 23:09:00,34.9,33.1,30.27,East,98,0.0,7.0,93,0.00,,,0.00,Wunderground v.1.15,2013-01-02 07:09:00,
2013-01-01 23:14:00,35.2,33.4,30.27,SSE,161,0.0,7.0,93,0.00,,,0.00,Wunderground v.1.15,2013-01-02 07:14:00,
2013-01-01 23:20:00,35.3,33.7,30.27,SE,146,2.0,7.0,94,0.00,,,0.00,Wunderground v.1.15,2013-01-02 07:20:00,
2013-01-01 23:25:00,35.0,33.2,30.27,ESE,107,2.0,7.0,93,0.00,,,0.00,Wunderground v.1.15,2013-01-02 07:25:00,
2013-01-01 23:30:00,34.6,33.0,30.27,ESE,105,0.0,0.0,93,0.00,,,0.00,weatherlink.com 1.10,2013-01-02 07:30:00,
2013-01-01 23:39:00,33.4,31.6,30.27,NNE,16,0.0,7.0,93,0.00,,,0.00,Wunderground v.1.15,2013-01-02 07:39:00,
2013-01-01 23:44:00,33.1,32.0,30.27,NE,37,0.0,0.0,94,0.00,,,0.00,weatherlink.com 1.10,2013-01-02 07:44:00,
2013-01-01 23:49:00,33.1,31.6,30.27,NE,37,0.0,7.0,94,0.00,,,0.00,Wunderground v.1.15,2013-01-02 07:49:00,
2013-01-01 23:55:00,33.0,31.7,30.27,NE,37,0.0,7.0,95,0.00,,,0.00,Wunderground v.1.15,2013-01-02 07:55:00,